Temperature
20 21 22 22 22 21 21 20 20 20 19 19 19 19 19 18 18 18 17 17 17 17 17 16 16 16 16 16 16 16 17 17 17 17 17 17 17 17 18 18 18 18 18
21 22 22 22 22 22 21 21 21 20 20 20 19 19 18 18 18 17 17 16 16 16 16 16 16 16 16 16 16 16 16 16 16 16 16 16 17 17 18 18 18 18 18
22 22 22 22 22 22 22 22 21 21 20 20 19 19 18 18 17 17 16 16 16 16 16 16 16 16 16 16 16 16 16 16 16 16 16 15 16 16 17 17 17 17 17
22 22 22 22 22 22 22 21 21 20 20 19 19 18 18 17 17 16 16 15 15 15 15 15 16 16 16 16 16 16 15 15 15 15 16 15 15 15 15 16 16 16 16
22 22 23 23 22 22 21 21 21 20 20 19 19 18 18 17 16 16 15 15 15 15 15 15 15 15 15 15 15 15 15 15 15 15 15 15 15 15 14 14 15 16 16
22 23 23 22 22 21 21 21 20 20 20 19 18 18 17 16 16 15 15 15 15 15 15 14 14 14 14 14 14 14 14 14 15 15 15 15 14 14 14 14 15 15 15
22 23 23 22 22 21 21 21 20 20 19 19 18 17 16 16 15 15 15 14 14 14 14 14 14 13 13 13 13 14 14 14 14 14 14 14 14 14 14 14 14 14 14
21 22 22 22 22 21 21 21 20 20 20 19 18 17 16 15 15 15 14 14 14 13 13 13 13 13 13 13 13 13 14 14 14 14 14 14 14 14 14 14 14 14 13
20 21 21 21 21 22 22 21 21 20 20 19 18 17 16 15 15 14 14 14 13 13 13 13 13 13 13 13 13 13 14 14 14 14 14 14 14 14 14 14 14 14 13
19 19 20 21 21 21 21 21 20 20 19 18 18 17 16 15 15 14 14 14 13 13 13 13 13 13 13 13 13 13 13 13 13 13 13 13 14 13 13 13 14 14 14
16 17 18 19 19 20 20 19 19 19 18 18 17 16 16 15 15 15 14 14 13 13 13 12 12 13 13 13 13 13 13 13 13 13 13 13 13 13 13 13 13 13 14
14 15 16 16 17 17 18 18 18 18 17 17 17 16 16 15 15 15 14 14 13 13 13 12 12 12 12 12 13 13 13 13 13 13 13 13 13 13 13 13 13 13 13
12 13 13 14 14 15 15 16 16 17 17 17 16 16 16 16 15 15 14 14 13 13 12 12 12 12 12 12 12 12 12 12 12 12 12 12 12 12 12 12 12 13 12
10 11 11 12 12 13 13 14 15 15 16 16 16 16 16 15 15 15 14 13 13 13 12 12 12 12 12 12 12 12 12 12 12 12 12 12 12 12 12 12 12 12 12
9 9 10 10 11 12 12 12 13 13 14 14 15 15 15 15 15 14 14 13 13 12 12 12 12 12 12 11 11 11 11 11 11 11 11 11 12 12 12 12 12 12 13
8 8 9 9 9 10 10 11 11 12 12 12 13 14 14 15 15 14 14 13 13 12 12 12 12 12 11 11 11 11 11 11 11 11 11 11 11 12 12 12 12 12 13
7 8 8 8 8 9 9 10 10 10 11 11 12 12 12 13 14 14 13 13 12 12 12 12 12 11 11 11 11 11 11 11 10 11 11 11 11 12 12 12 12 12 12
9 9 9 9 9 9 9 9 9 10 10 10 11 11 11 11 12 13 13 12 12 12 12 12 11 11 11 11 11 11 11 11 11 11 11 11 11 11 11 11 11 11 11
9 9 10 10 10 10 9 9 9 9 9 10 10 10 10 11 11 11 12 12 11 11 12 12 11 11 11 11 11 11 11 11 11 11 11 11 11 11 11 11 11 11 11
10 10 10 10 10 10 10 9 9 9 9 9 9 9 9 10 10 10 10 11 11 11 11 11 11 11 11 11 11 11 11 11 11 11 11 11 11 11 11 11 11 11 11
10 10 10 9 9 9 9 9 9 9 9 9 9 9 9 9 9 9 9 10 10 10 10 11 11 11 11 11 11 11 11 11 11 11 11 10 10 10 10 11 11 11 10
9 9 9 9 9 9 9 9 9 9 9 9 8 9 9 8 8 9 9 9 9 9 10 10 11 11 11 11 11 11 11 11 11 11 11 10 10 10 10 10 10 10 9
8 8 8 8 8 8 8 8 8 9 8 8 8 8 8 8 8 8 8 8 8 8 9 10 10 11 11 11 11 11 11 11 11 11 10 10 9 9 9 9 9 9 8
7 7 6 6 6 6 7 7 7 8 8 8 8 8 8 8 8 8 7 7 7 8 8 10 10 10 11 11 11 11 10 10 10 10 10 9 9 9 9 8 8 8 8
6 6 5 5 5 5 6 6 6 6 7 7 7 8 8 8 7 7 7 7 7 7 8 9 10 10 11 11 11 11 11 10 10 10 10 9 9 9 8 8 8 7 7
5 5 5 5 5 5 5 5 5 5 5 6 6 7 8 8 7 7 7 7 6 7 7 8 10 11 11 11 11 11 11 11 10 10 10 9 9 9 8 8 8 7 7
Wind_Speed
3 2 4 5 5 5 6 6 6 5 4 2 2 2 3 3 3 3 4 5 6 7 5 5 6 6 6 8 9 8 9 8 5 4 6 7 10 11 11 11 11 12 13
4 5 5 5 5 5 6 6 6 5 5 3 2 2 2 2 3 3 4 5 6 6 5 6 7 7 7 8 9 8 6 5 5 5 4 4 4 6 8 9 9 10 9
9 8 7 7 6 7 8 6 7 6 4 3 1 0 1 2 2 3 3 3 5 6 5 7 8 8 8 8 9 9 9 8 7 8 6 5 6 3 3 4 5 6 6
9 9 9 9 9 9 6 6 5 4 3 3 3 3 2 3 3 2 4 6 6 6 7 7 8 9 8 9 10 10 9 9 8 7 9 8 5 4 3 2 3 4 5
11 11 11 10 8 5 4 4 3 3 3 3 4 4 4 3 2 3 5 6 7 8 8 8 9 9 9 10 11 10 10 9 10 8 6 9 8 8 7 5 3 2 2
11 10 8 5 5 4 4 4 4 5 4 5 5 6 6 4 3 4 5 5 6 7 8 9 9 9 9 10 11 11 12 11 12 10 8 7 5 6 8 9 6 3 1
8 8 8 7 7 7 6 6 6 6 5 5 6 6 6 5 4 4 4 5 5 6 8 9 9 9 9 10 10 10 11 11 12 11 10 9 8 5 6 7 5 3 0
5 7 8 8 9 9 8 7 8 7 6 6 6 5 6 4 4 5 4 5 5 7 9 10 10 10 10 9 8 8 9 9 10 11 11 9 8 7 6 5 5 3 2
5 7 8 8 8 8 7 7 8 7 7 7 6 6 6 6 6 5 5 5 5 6 8 10 10 10 9 9 7 6 7 7 8 8 9 8 7 7 7 5 5 6 4
9 10 9 9 8 6 5 4 4 5 5 6 7 6 8 8 7 5 6 5 5 5 8 10 10 10 9 8 6 6 5 5 5 5 7 7 5 6 5 5 4 4 4
11 12 12 12 11 10 8 6 5 5 5 6 7 8 8 8 7 6 7 5 5 5 7 8 9 9 9 8 6 5 4 2 2 2 5 6 6 5 5 4 4 3 4
12 12 13 14 14 13 11 10 8 7 7 6 7 9 9 8 8 8 8 6 5 5 5 6 7 8 8 8 7 5 4 2 1 1 3 5 6 7 5 5 5 5 5
15 15 15 15 14 13 12 11 10 9 8 7 8 9 9 10 10 10 8 6 5 4 4 4 5 6 7 6 6 6 5 6 6 6 5 6 7 7 5 6 7 7 7
15 15 15 14 13 12 11 12 11 9 9 8 8 10 11 11 11 9 8 7 5 4 3 3 3 4 4 5 6 6 7 8 9 8 7 6 6 7 7 7 9 10 10
19 18 17 15 15 14 13 12 12 11 10 10 9 10 11 10 10 9 9 7 6 5 3 1 1 2 2 4 5 6 8 9 9 9 7 6 7 8 7 8 9 11 10
20 20 19 19 19 18 17 15 13 12 11 10 10 10 9 9 10 10 9 8 7 6 4 3 2 2 3 6 7 7 7 7 8 8 7 8 10 14 14 13 11 10 11
17 17 17 17 17 16 15 13 13 12 10 9 9 10 10 9 9 9 9 10 9 7 6 5 4 5 6 9 8 7 6 6 5 5 6 7 8 10 11 13 14 12 10
15 15 15 16 15 16 15 13 12 11 10 9 8 8 8 10 9 7 9 10 8 8 7 7 7 7 8 11 10 8 6 6 5 5 6 7 6 6 10 10 10 9 7
15 15 15 15 14 16 15 13 13 11 10 10 9 8 7 8 9 8 9 8 8 8 7 8 9 9 10 13 12 10 6 7 6 5 5 6 6 8 13 12 12 11 10
16 16 15 14 14 15 12 11 13 12 12 12 10 8 7 7 7 8 8 7 8 9 10 9 9 10 11 14 15 13 8 7 6 5 5 6 8 9 11 12 13 12 8
19 18 16 15 14 14 11 12 13 14 14 12 11 10 9 8 7 6 6 7 9 9 10 10 9 9 11 16 17 15 9 9 8 6 5 5 10 12 12 11 10 12 10
18 17 15 17 16 14 12 14 15 15 13 12 12 12 10 9 6 5 5 6 7 9 10 9 8 6 8 13 15 16 13 13 10 8 6 6 12 14 14 11 12 13 11
19 16 16 18 17 14 13 15 17 15 13 12 13 13 11 9 7 6 5 5 5 7 10 10 10 8 7 9 15 15 15 14 7 8 10 12 14 13 11 12 12 10 8
18 17 17 18 18 16 15 15 15 13 12 13 13 12 10 9 8 6 5 4 4 6 9 11 12 9 8 8 9 9 10 11 10 10 12 13 12 10 10 8 7 5 6
18 17 18 19 20 18 17 16 13 11 12 13 13 12 11 10 8 7 7 6 4 4 8 11 13 14 13 13 16 15 12 11 12 12 7 6 5 6 5 5 5 5 5
19 20 20 21 21 19 17 15 13 11 11 11 11 10 9 8 8 7 7 9 8 9 14 15 13 14 16 19 20 19 19 19 20 13 10 8 8 8 7 7 5 4 4
Wind_Direction
132 154 155 149 140 147 158 169 179 184 169 165 188 213 246 257 267 266 273 288 294 296 287 279 278 270 260 258 253 249 247 244 227 232 261 259 248 247 249 248 250 253 255
178 197 192 191 189 187 190 196 202 203 199 187 187 198 227 266 285 300 306 305 306 304 301 289 285 277 266 261 256 244 243 237 201 205 230 271 280 246 243 244 246 253 259
190 204 208 215 215 216 213 209 215 218 218 205 164 52 358 334 321 319 315 313 313 305 296 293 289 284 273 265 256 243 237 241 221 206 206 218 237 275 268 247 246 252 259
209 214 215 219 222 227 229 231 233 236 233 196 196 207 227 261 267 284 293 307 313 313 308 299 295 288 280 270 263 252 240 237 235 220 220 223 209 223 270 273 254 252 254
216 219 220 222 230 240 246 245 246 256 247 213 203 204 218 228 257 278 296 306 314 314 310 306 302 295 286 276 269 261 247 237 234 224 215 225 226 223 233 258 258 267 269
227 234 241 248 265 262 246 231 225 240 228 208 198 196 206 217 251 286 302 309 312 308 307 311 305 298 290 281 272 263 253 243 238 233 218 208 208 211 218 233 242 251 289
242 258 271 274 271 264 246 225 217 231 222 206 201 198 197 198 222 258 285 303 310 310 312 316 311 304 294 285 275 265 257 247 241 235 228 221 218 195 195 213 222 213 166
290 290 285 277 269 259 241 219 217 226 217 209 208 200 194 197 218 236 253 275 288 296 304 312 312 309 305 298 282 270 262 252 245 237 228 223 220 206 197 190 183 178 150
334 316 308 297 284 275 252 221 216 224 219 213 208 207 206 210 223 236 246 262 276 294 308 315 317 316 313 308 299 280 270 256 246 237 227 219 213 204 201 195 186 175 162
14 2 353 346 339 330 319 306 271 250 234 220 215 216 217 218 223 232 248 261 279 296 314 321 323 324 327 325 312 295 278 260 250 229 215 209 198 190 187 184 176 168 147
21 15 11 8 6 3 356 341 324 300 276 248 232 228 229 225 225 233 247 257 276 298 315 321 323 328 336 341 335 321 305 280 275 235 208 196 174 162 148 130 121 125 127
19 15 11 9 9 6 359 350 336 313 285 263 247 240 236 229 230 236 243 248 266 288 307 319 326 334 341 348 351 350 353 3 37 64 129 136 133 120 113 109 106 106 111
15 11 8 6 1 356 352 348 343 330 311 284 258 250 242 232 234 237 238 239 250 276 305 325 332 337 347 2 13 25 37 49 54 59 76 89 101 98 98 108 113 111 106
8 3 357 352 347 344 342 339 336 331 325 307 276 260 251 240 236 234 231 231 233 248 282 309 327 343 7 32 42 51 58 60 56 52 56 65 86 103 110 116 120 117 110
356 351 345 341 336 334 333 331 331 332 331 323 302 279 266 252 241 234 229 224 223 225 232 258 349 21 52 72 78 73 73 73 70 59 56 68 97 112 119 127 124 122 117
342 337 334 330 326 324 323 321 321 325 332 334 330 319 297 267 248 238 226 217 215 211 200 188 154 109 111 117 109 101 88 84 85 81 70 78 89 96 95 97 102 116 124
320 315 313 308 305 303 302 301 303 309 317 323 330 336 331 308 274 249 230 218 209 199 189 180 169 160 159 153 140 113 102 99 103 104 97 92 88 92 95 84 77 76 93
284 287 289 290 292 293 293 290 289 293 298 303 312 322 331 329 313 273 243 227 205 196 189 182 178 174 182 175 157 124 102 94 86 90 107 112 102 104 109 99 86 75 69
274 280 282 284 286 289 290 290 285 281 284 286 291 300 312 323 327 308 270 237 211 199 190 181 179 181 184 181 162 139 121 104 84 73 86 114 113 124 120 111 104 93 83
286 286 285 284 282 282 283 283 280 277 276 275 274 277 284 297 310 315 298 251 219 208 193 182 183 184 180 176 164 148 137 122 108 85 73 87 112 124 126 122 120 115 113
286 287 286 284 279 279 277 276 274 268 267 269 270 270 267 271 280 302 307 272 234 205 193 182 181 186 179 172 167 159 149 141 132 123 106 90 104 105 105 109 118 129 125
284 282 281 280 280 277 272 272 270 266 266 267 266 263 259 260 270 282 304 291 243 208 194 181 177 184 179 173 175 168 154 147 141 140 130 114 107 104 102 102 113 114 109
288 283 279 279 279 275 266 264 267 266 266 266 265 261 256 250 251 255 277 297 260 220 195 188 186 185 181 182 179 168 153 147 136 142 137 125 112 103 99 106 112 110 110
287 285 283 281 280 276 269 260 261 261 258 260 263 261 252 248 245 243 239 254 273 230 205 194 191 184 178 178 171 164 151 142 132 132 126 113 104 102 102 97 92 95 109
290 286 284 283 281 278 270 265 260 252 253 257 259 258 246 238 239 238 232 227 248 252 224 207 194 185 186 188 173 164 163 160 152 140 128 125 126 123 119 112 106 107 113
292 290 287 285 283 279 272 264 259 249 245 252 255 252 243 233 230 238 248 232 240 261 249 235 211 199 188 169 169 167 161 152 148 144 151 154 157 158 157 151 141 134 129
Height
1507 1508 1510 1511 1512 1513 1513 1514 1515 1515 1515 1515 1514 1514 1514 1513 1512 1511 1510 1508 1507 1505 1503 1501 1500 1499 1497 1497 1496 1496 1495 1495 1496 1496 1496 1496 1496 1496 1496 1497 1497 1498 1498
1507 1508 1510 1511 1511 1512 1512 1513 1513 1514 1514 1514 1513 1512 1512 1510 1509 1508 1506 1504 1502 1500 1498 1496 1494 1493 1491 1490 1489 1489 1488 1488 1489 1490 1490 1489 1489 1488 1489 1490 1490 1490 1490
1506 1507 1508 1509 1510 1510 1511 1512 1512 1512 1512 1512 1511 1510 1508 1507 1506 1504 1502 1500 1497 1494 1492 1489 1487 1485 1484 1482 1481 1481 1481 1480 1481 1482 1484 1483 1481 1482 1481 1482 1483 1483 1484
1504 1505 1506 1507 1508 1509 1510 1510 1510 1511 1510 1509 1508 1507 1505 1503 1502 1499 1497 1494 1491 1488 1485 1482 1480 1477 1475 1473 1472 1472 1472 1472 1473 1474 1475 1476 1477 1478 1476 1476 1477 1478 1478
1501 1502 1503 1504 1506 1507 1508 1508 1508 1508 1508 1506 1505 1503 1501 1500 1498 1495 1492 1489 1486 1483 1479 1475 1472 1469 1466 1464 1463 1463 1463 1464 1464 1466 1467 1468 1469 1470 1471 1470 1471 1473 1473
1498 1500 1501 1503 1504 1504 1505 1505 1505 1505 1504 1503 1501 1499 1497 1496 1494 1491 1487 1484 1480 1477 1473 1468 1465 1462 1459 1456 1455 1454 1454 1455 1456 1457 1459 1460 1461 1461 1463 1464 1466 1467 1468
1496 1498 1499 1500 1501 1501 1501 1501 1501 1501 1501 1499 1497 1495 1493 1491 1489 1486 1483 1479 1475 1472 1468 1464 1460 1456 1453 1451 1448 1447 1447 1448 1448 1449 1451 1452 1453 1455 1457 1459 1461 1463 1464
1495 1496 1496 1497 1497 1497 1497 1497 1497 1497 1497 1495 1493 1491 1489 1487 1485 1482 1479 1475 1472 1468 1464 1461 1457 1453 1449 1446 1444 1442 1441 1441 1441 1442 1444 1445 1446 1449 1451 1454 1456 1458 1460
1494 1494 1494 1493 1493 1493 1493 1493 1494 1494 1493 1491 1489 1487 1485 1483 1481 1478 1475 1472 1469 1465 1462 1458 1455 1451 1447 1443 1440 1438 1437 1436 1436 1436 1437 1439 1440 1443 1445 1448 1451 1454 1456
1493 1492 1491 1490 1490 1490 1490 1490 1490 1490 1489 1487 1485 1483 1481 1479 1477 1474 1472 1469 1466 1463 1460 1457 1453 1449 1445 1441 1438 1435 1434 1432 1431 1431 1432 1433 1435 1438 1441 1444 1446 1449 1452
1493 1491 1490 1489 1488 1487 1487 1487 1486 1486 1485 1483 1481 1479 1477 1475 1473 1471 1468 1466 1463 1460 1457 1455 1451 1448 1443 1439 1436 1433 1431 1430 1428 1428 1428 1429 1431 1434 1437 1440 1443 1446 1449
1495 1492 1491 1489 1487 1486 1485 1484 1483 1482 1480 1479 1477 1475 1473 1471 1469 1467 1465 1463 1460 1458 1455 1453 1450 1447 1443 1439 1435 1432 1430 1429 1427 1426 1426 1426 1429 1431 1435 1438 1442 1445 1449
1497 1495 1492 1490 1488 1485 1483 1481 1479 1477 1475 1474 1472 1470 1468 1467 1465 1464 1462 1459 1457 1455 1453 1451 1449 1446 1443 1439 1435 1432 1430 1429 1428 1427 1426 1427 1429 1432 1435 1438 1442 1446 1449
1500 1497 1494 1492 1489 1486 1482 1479 1476 1473 1470 1468 1465 1463 1462 1461 1460 1459 1457 1456 1454 1452 1451 1449 1448 1445 1442 1439 1436 1433 1431 1430 1429 1429 1430 1430 1432 1434 1437 1440 1444 1447 1451
1500 1498 1494 1491 1488 1484 1480 1477 1473 1469 1465 1462 1459 1456 1455 1454 1453 1453 1452 1451 1450 1449 1448 1447 1446 1444 1442 1440 1437 1435 1434 1432 1432 1433 1434 1435 1436 1438 1440 1443 1447 1450 1453
1501 1497 1493 1488 1485 1481 1477 1473 1469 1465 1461 1456 1452 1449 1447 1446 1445 1445 1446 1446 1445 1444 1444 1444 1444 1443 1441 1440 1439 1437 1436 1436 1436 1437 1438 1439 1441 1443 1445 1448 1451 1453 1455
1497 1493 1488 1484 1480 1476 1473 1468 1465 1461 1457 1452 1448 1444 1441 1439 1438 1437 1438 1439 1439 1439 1440 1441 1441 1441 1441 1441 1441 1440 1440 1440 1441 1442 1443 1445 1446 1447 1449 1452 1454 1456 1458
1492 1488 1484 1479 1475 1471 1467 1462 1459 1456 1452 1448 1444 1440 1436 1434 1431 1430 1430 1431 1433 1434 1435 1436 1438 1439 1439 1440 1441 1441 1442 1443 1444 1446 1447 1448 1450 1451 1453 1454 1456 1457 1459
1487 1483 1478 1473 1469 1465 1461 1456 1453 1450 1447 1443 1440 1436 1432 1429 1427 1424 1423 1424 1425 1427 1429 1431 1433 1435 1437 1439 1440 1442 1443 1445 1446 1448 1449 1450 1451 1453 1454 1455 1456 1458 1460
1480 1475 1470 1466 1461 1457 1454 1449 1446 1443 1440 1437 1434 1431 1428 1425 1422 1419 1418 1417 1417 1419 1423 1425 1428 1431 1434 1436 1439 1441 1443 1445 1447 1448 1450 1451 1452 1453 1454 1455 1456 1458 1460
1472 1467 1462 1457 1452 1449 1445 1440 1437 1435 1433 1430 1428 1425 1423 1420 1417 1414 1412 1410 1410 1411 1415 1419 1423 1427 1430 1434 1437 1440 1442 1445 1447 1448 1450 1451 1452 1453 1454 1456 1457 1458 1460
1463 1458 1453 1447 1443 1440 1436 1430 1427 1425 1424 1422 1420 1418 1416 1414 1412 1409 1406 1405 1403 1404 1407 1412 1417 1422 1426 1430 1434 1438 1441 1444 1447 1448 1450 1451 1453 1454 1455 1457 1458 1460 1461
1452 1447 1441 1435 1431 1429 1425 1420 1417 1415 1413 1411 1410 1409 1408 1407 1405 1403 1401 1399 1397 1397 1399 1406 1411 1416 1421 1427 1432 1436 1439 1443 1446 1448 1450 1452 1454 1455 1456 1458 1459 1461 1462
1440 1435 1429 1423 1417 1415 1413 1409 1406 1405 1402 1401 1400 1400 1399 1399 1398 1397 1396 1394 1392 1392 1393 1400 1405 1411 1417 1422 1427 1432 1436 1441 1445 1447 1450 1452 1455 1456 1457 1458 1460 1461 1462
1429 1423 1417 1410 1404 1401 1398 1397 1395 1393 1391 1390 1390 1390 1390 1390 1390 1390 1389 1388 1386 1387 1389 1394 1400 1405 1411 1417 1423 1427 1433 1437 1442 1445 1448 1451 1454 1456 1458 1459 1460 1461 1462
1416 1409 1403 1397 1391 1388 1384 1383 1382 1381 1380 1379 1380 1380 1381 1381 1382 1382 1382 1381 1380 1380 1382 1388 1395 1401 1407 1413 1420 1425 1431 1435 1439 1443 1446 1450 1453 1455 1457 1459 1460 1461 1462